Wind_Speed
19 19 19 19 20 24 22 24 26 25 23 25 29 30 31 33 36 37 37 35 34 36 36 36 36 37 44 47 43 43 45 34 30 33 32 37 38 35 34 33 31 31 33 33 34
22 22 22 22 22 22 26 27 28 28 27 26 26 27 25 27 30 34 38 39 38 36 39 37 35 37 40 48 48 46 43 36 35 37 39 40 40 38 35 35 33 31 34 35 36
29 27 26 25 25 26 26 27 30 31 31 30 28 27 27 27 25 28 31 35 37 38 38 37 34 36 38 46 51 51 48 43 42 41 42 42 41 41 38 35 31 34 37 35 34
30 32 32 31 30 30 30 31 30 30 31 32 33 31 30 29 27 26 26 28 32 37 36 37 35 35 38 45 52 53 49 48 46 46 46 45 45 43 41 34 36 37 37 35 33
31 31 34 37 36 34 33 34 34 32 33 33 32 32 34 33 31 30 28 27 29 30 33 35 33 38 40 41 47 51 50 50 49 51 50 48 46 46 40 36 39 40 39 36 36
34 33 32 34 41 41 39 37 36 36 36 35 34 32 32 32 35 35 32 31 30 30 30 30 37 34 39 41 44 46 52 52 50 52 53 52 50 52 34 40 45 46 42 39 36
40 38 37 36 36 42 47 45 43 42 39 39 37 39 35 31 33 35 37 36 35 34 33 32 30 30 37 39 38 43 47 51 49 59 56 57 55 51 42 47 50 45 44 41 37
46 43 41 40 39 39 42 49 50 48 47 45 46 43 39 36 36 35 37 39 39 38 38 36 34 33 31 34 37 39 41 40 40 50 55 63 55 50 51 51 49 50 47 46 42
46 45 45 43 42 41 40 43 47 50 50 50 51 51 46 43 41 39 35 38 41 40 40 40 39 37 35 36 36 36 36 38 36 39 45 54 55 51 52 51 50 49 48 45 40
42 44 45 44 42 43 42 42 43 46 49 50 50 50 49 45 43 41 38 38 38 41 43 43 43 41 38 37 34 33 37 38 35 33 36 36 46 54 56 57 50 47 43 40 40
38 39 40 41 40 43 44 45 45 46 46 47 48 47 47 45 46 44 43 39 38 39 41 44 46 44 37 39 41 41 40 36 31 30 32 32 30 38 51 62 51 50 45 42 37
38 39 39 41 43 44 44 45 47 49 46 45 47 48 46 47 47 46 46 44 40 38 40 42 41 41 43 44 44 43 41 38 32 33 36 32 33 23 37 53 56 49 47 39 40
43 43 42 43 46 46 48 48 49 51 56 43 44 49 48 47 48 47 47 47 45 43 40 40 38 41 45 44 44 43 43 41 39 39 40 39 38 25 25 35 39 37 33 44 37
50 50 50 48 51 49 52 52 54 56 61 57 47 50 47 48 48 45 47 49 48 45 44 46 43 39 39 40 43 43 43 43 41 42 43 41 45 32 26 31 34 31 33 39 37
52 53 53 54 54 56 57 57 56 57 63 60 57 51 50 48 48 46 46 48 50 49 47 48 47 45 42 40 41 42 43 45 44 44 45 43 48 36 28 27 34 36 38 35 35
55 54 53 55 55 56 58 60 63 62 63 63 62 60 57 52 49 47 43 45 47 49 49 48 49 47 47 46 45 44 43 44 45 46 45 42 44 32 34 27 30 37 37 37 34
62 62 62 61 62 65 64 63 67 70 66 65 63 64 61 61 59 55 51 46 44 47 48 47 47 47 47 48 48 48 46 46 46 47 43 42 42 28 38 30 30 32 37 37 38
70 71 70 69 70 70 72 75 78 71 68 67 67 69 67 59 58 60 59 56 53 51 48 45 46 45 46 45 45 47 50 51 52 50 45 45 42 32 36 37 33 34 34 37 40
81 80 79 78 79 78 81 86 81 69 71 66 67 71 70 67 67 62 59 60 58 56 56 56 57 54 50 47 45 47 49 47 49 50 51 51 47 40 38 37 34 31 34 36 38
86 86 86 87 86 86 91 91 84 75 77 77 75 73 73 71 71 71 69 60 58 59 59 59 61 58 53 52 52 53 49 46 47 50 52 53 50 47 41 40 38 34 33 34 36
86 86 87 89 89 91 95 94 88 82 83 84 83 82 79 77 76 75 73 71 67 62 64 66 67 68 63 60 54 50 52 49 48 50 53 53 50 44 44 42 40 40 36 32 34
80 82 82 85 85 84 90 89 91 90 90 91 91 88 86 81 83 82 79 73 73 71 66 66 69 71 72 69 64 60 58 58 57 54 51 49 49 46 43 43 41 35 32 30 27
65 64 63 66 71 70 73 81 84 88 89 90 89 87 87 87 85 84 82 77 76 74 76 67 65 65 71 73 73 72 67 63 59 56 55 54 53 54 49 45 41 39 35 35 33
53 47 41 44 50 53 55 59 63 66 75 76 79 82 84 86 86 86 81 77 72 73 65 67 70 59 61 60 57 59 64 66 62 62 61 61 55 57 52 47 46 48 43 41 38
40 37 33 35 33 36 36 42 51 62 57 60 53 51 71 83 79 79 82 80 75 70 75 78 78 81 74 63 59 60 63 65 69 66 68 63 62 59 57 56 55 53 49 48 45
32 40 38 30 43 28 27 35 37 46 69 66 63 66 60 58 57 70 69 76 81 77 74 77 75 78 84 81 77 73 66 59 60 66 70 70 73 66 62 61 58 57 58 57 54
27 28 32 35 32 39 39 38 36 39 43 59 68 64 70 68 59 60 73 76 75 75 73 73 73 77 80 82 83 83 77 73 71 66 63 66 61 57 57 59 61 62 64 66 64
Wind_Direction
268 265 261 261 259 254 256 256 258 263 260 256 250 253 254 249 247 252 250 256 261 251 252 251 249 249 246 239 242 246 249 245 243 243 244 247 252 253 255 256 255 257 258 263 268
265 262 260 260 262 263 258 254 253 255 257 257 260 254 252 251 254 252 253 254 258 255 253 252 252 250 244 237 240 243 251 249 247 243 245 247 253 253 254 255 256 254 260 259 263
259 259 264 262 258 259 261 262 258 256 256 258 256 257 258 253 253 253 253 249 250 252 251 251 248 249 249 242 243 243 245 248 246 246 246 246 250 254 254 255 254 251 251 255 260
264 258 260 263 261 257 257 259 261 263 263 258 257 258 257 257 254 252 254 255 254 254 251 253 249 245 244 244 242 247 249 250 249 245 245 246 247 250 254 257 253 254 254 252 254
272 272 261 256 259 263 260 255 259 258 263 266 262 258 257 256 257 255 254 256 260 259 256 247 249 248 244 243 244 248 249 250 250 248 246 245 248 248 249 253 256 255 253 252 253
270 272 273 268 260 259 258 257 255 257 260 263 264 264 262 257 254 256 254 253 256 260 260 260 250 246 248 249 248 246 251 251 249 247 248 248 247 251 250 250 249 250 254 255 256
269 271 275 275 268 260 259 258 256 256 256 259 261 262 265 260 257 255 253 253 254 255 256 258 258 261 252 251 253 256 254 255 254 248 248 248 248 250 246 248 253 252 254 255 254
272 268 272 276 277 271 263 257 258 257 255 255 255 256 259 265 267 262 254 253 252 252 253 254 254 253 255 258 261 256 257 260 262 259 259 251 249 247 246 249 249 251 250 252 254
270 275 274 277 278 276 271 265 260 258 257 256 255 255 254 253 260 262 258 253 253 252 252 252 253 253 255 256 256 262 268 267 265 268 263 256 252 245 245 245 247 250 252 251 252
278 278 277 276 277 275 276 272 266 263 260 259 258 259 257 255 253 258 258 255 252 251 251 251 252 253 254 255 262 259 252 255 263 267 269 266 261 247 244 243 243 247 248 247 243
276 275 276 277 278 275 274 273 269 265 262 263 261 259 258 254 252 252 256 256 256 255 253 253 252 253 256 255 252 252 256 260 263 264 264 268 268 252 242 249 244 246 245 246 239
280 279 278 278 276 275 274 272 272 270 261 262 259 258 256 254 253 253 254 256 255 256 256 256 258 255 252 252 254 256 256 257 254 255 264 264 265 272 254 251 249 238 239 240 240
280 278 278 276 275 274 273 272 272 270 267 252 259 260 259 254 254 251 254 254 255 255 257 258 257 253 252 251 253 255 257 256 252 249 253 260 264 259 243 243 243 252 244 246 251
278 277 276 274 273 272 271 271 270 270 269 262 258 256 259 264 256 254 255 256 256 255 252 255 254 256 255 254 253 253 256 257 255 254 254 257 267 253 249 241 243 245 246 244 244
280 279 277 275 273 274 269 268 268 269 269 267 264 259 258 259 260 257 255 253 255 255 252 254 253 251 251 252 250 251 248 251 253 254 256 256 260 263 250 248 239 243 244 244 245
276 275 274 275 274 270 270 270 268 265 263 265 266 265 260 260 259 258 257 254 254 255 253 252 253 252 251 251 250 251 251 251 252 254 256 259 257 257 260 249 241 243 248 247 250
279 277 275 274 270 271 268 265 262 262 263 263 264 265 267 263 259 259 258 256 256 254 254 253 252 251 249 249 250 251 252 252 252 252 258 260 259 268 267 258 253 242 246 249 251
280 279 277 275 271 269 266 263 260 264 264 266 265 265 265 265 264 260 258 257 254 255 256 254 251 251 251 251 251 249 250 251 253 254 255 256 259 258 267 265 258 255 251 247 249
281 278 274 272 271 267 262 258 264 268 268 267 265 263 263 264 263 262 260 256 255 253 253 254 253 252 251 250 249 249 250 252 254 255 255 255 256 256 260 265 264 254 252 251 250
282 278 275 271 267 261 259 264 268 266 265 264 261 261 262 260 258 258 259 256 255 254 252 251 252 250 249 248 248 250 249 248 249 252 254 258 258 259 261 261 263 260 251 250 252
279 276 271 267 262 257 255 261 262 259 256 254 256 255 254 256 256 255 255 254 253 252 249 250 251 251 250 248 248 248 250 250 251 249 253 256 256 258 259 259 264 264 263 257 253
281 274 270 266 260 256 254 250 250 249 248 249 249 249 251 250 251 253 251 251 251 251 253 252 250 249 251 250 248 247 248 248 246 248 251 256 255 260 261 259 260 262 265 264 253
292 283 275 268 263 256 251 250 247 244 244 244 245 246 247 247 247 248 250 250 250 249 250 254 256 252 248 248 251 250 249 250 251 251 250 252 255 252 252 259 262 262 262 262 263
307 298 283 267 260 261 255 245 241 239 241 241 244 244 243 244 244 245 246 247 246 245 245 239 241 238 243 245 247 252 252 250 249 248 249 249 251 255 256 257 259 259 259 257 258
317 316 305 268 257 264 265 260 241 229 229 230 225 231 243 242 240 240 243 243 241 239 238 242 248 247 241 239 243 245 243 244 244 245 244 249 249 249 253 253 250 252 255 256 257
314 320 318 324 256 258 259 264 252 238 227 228 238 228 223 229 235 237 239 238 241 240 242 246 248 248 249 241 244 243 241 239 242 243 243 244 244 245 246 249 253 254 253 254 254
302 295 313 321 317 266 261 267 263 247 240 233 236 235 232 227 224 230 233 229 236 239 241 242 244 246 249 251 253 252 243 243 244 243 246 245 245 248 249 249 247 248 251 251 250
Height
5781 5779 5778 5778 5777 5778 5775 5775 5776 5776 5775 5774 5774 5776 5777 5777 5779 5781 5781 5783 5783 5783 5784 5786 5786 5786 5786 5788 5790 5792 5790 5801 5804 5803 5805 5801 5803 5806 5806 5807 5808 5810 5809 5809 5807
5778 5776 5775 5773 5771 5770 5770 5771 5772 5772 5771 5770 5770 5770 5770 5770 5771 5772 5773 5774 5775 5776 5776 5777 5778 5778 5778 5780 5781 5783 5784 5795 5797 5795 5795 5795 5795 5797 5799 5801 5804 5804 5802 5802 5801
5773 5771 5771 5769 5767 5766 5766 5766 5765 5765 5765 5765 5765 5764 5766 5765 5767 5765 5765 5766 5768 5767 5768 5769 5770 5770 5770 5772 5773 5774 5778 5784 5786 5788 5787 5789 5789 5789 5791 5794 5798 5796 5794 5796 5796
5767 5766 5765 5765 5764 5762 5762 5761 5759 5759 5758 5758 5758 5757 5759 5760 5762 5759 5759 5759 5759 5760 5760 5761 5762 5762 5762 5763 5764 5765 5770 5772 5776 5777 5778 5780 5781 5782 5782 5788 5787 5787 5787 5790 5790
5760 5759 5758 5758 5757 5757 5755 5754 5754 5752 5751 5750 5750 5750 5752 5753 5753 5752 5752 5752 5752 5752 5752 5753 5753 5754 5754 5755 5756 5757 5761 5761 5764 5767 5768 5770 5773 5772 5776 5778 5777 5777 5779 5782 5782
5751 5750 5749 5748 5747 5747 5747 5746 5746 5746 5745 5744 5743 5742 5743 5746 5744 5744 5744 5745 5745 5745 5745 5745 5745 5745 5746 5747 5747 5749 5751 5752 5754 5758 5759 5760 5763 5761 5774 5768 5766 5767 5771 5773 5774
5741 5741 5740 5739 5738 5737 5736 5736 5736 5736 5736 5736 5736 5735 5736 5737 5736 5735 5736 5736 5737 5737 5738 5738 5738 5737 5738 5738 5740 5740 5742 5741 5745 5745 5747 5750 5752 5757 5758 5757 5756 5762 5763 5764 5767
5732 5730 5730 5729 5728 5727 5727 5726 5726 5725 5726 5727 5727 5727 5728 5729 5727 5727 5726 5727 5728 5729 5729 5730 5731 5730 5730 5731 5731 5731 5732 5733 5735 5734 5735 5738 5745 5746 5747 5749 5750 5749 5753 5755 5758
5723 5721 5720 5719 5717 5716 5715 5715 5715 5715 5715 5715 5717 5718 5721 5721 5719 5717 5718 5719 5719 5719 5720 5721 5721 5722 5723 5722 5722 5723 5725 5725 5724 5724 5725 5727 5732 5734 5736 5739 5740 5741 5744 5747 5749
5712 5711 5710 5708 5707 5705 5703 5702 5702 5702 5703 5703 5705 5708 5709 5711 5710 5709 5708 5708 5709 5709 5710 5711 5712 5713 5714 5715 5716 5715 5713 5713 5714 5716 5715 5716 5721 5724 5725 5726 5730 5731 5734 5737 5741
5702 5700 5698 5696 5695 5694 5693 5692 5692 5692 5690 5691 5692 5694 5695 5698 5699 5699 5699 5699 5698 5700 5701 5700 5701 5704 5707 5705 5703 5703 5704 5705 5706 5705 5704 5707 5707 5712 5712 5713 5720 5723 5725 5727 5731
5693 5690 5688 5686 5684 5683 5680 5678 5677 5675 5678 5679 5680 5681 5684 5685 5687 5688 5689 5690 5689 5689 5688 5690 5692 5695 5694 5693 5694 5695 5696 5698 5700 5697 5695 5697 5699 5701 5702 5703 5707 5712 5714 5719 5721
5682 5680 5678 5675 5672 5672 5670 5668 5665 5661 5658 5671 5668 5668 5671 5673 5674 5678 5678 5678 5679 5679 5680 5681 5683 5683 5682 5684 5684 5686 5687 5688 5689 5689 5688 5687 5691 5695 5696 5696 5698 5701 5705 5708 5712
5670 5668 5666 5665 5661 5659 5655 5654 5653 5649 5641 5650 5657 5657 5659 5660 5661 5665 5666 5667 5667 5669 5668 5668 5672 5674 5674 5674 5674 5676 5678 5678 5678 5678 5680 5681 5675 5687 5689 5690 5691 5695 5697 5700 5702
5655 5652 5651 5648 5649 5643 5640 5638 5637 5635 5627 5636 5640 5646 5648 5649 5650 5651 5653 5653 5654 5656 5658 5659 5660 5662 5664 5666 5665 5666 5667 5667 5667 5669 5670 5673 5669 5674 5683 5684 5687 5688 5688 5691 5694
5639 5636 5634 5631 5628 5627 5624 5621 5619 5618 5614 5620 5623 5627 5632 5634 5635 5636 5639 5641 5642 5642 5644 5645 5647 5650 5653 5655 5655 5656 5656 5657 5657 5658 5659 5662 5665 5663 5670 5678 5679 5679 5681 5683 5685
5622 5619 5616 5615 5613 5604 5604 5602 5596 5594 5610 5610 5612 5610 5611 5617 5621 5622 5625 5628 5630 5629 5632 5634 5635 5636 5639 5641 5643 5645 5647 5647 5647 5646 5649 5652 5655 5657 5656 5666 5669 5672 5673 5675 5677
5600 5597 5596 5593 5587 5584 5580 5575 5568 5592 5596 5597 5595 5592 5593 5598 5602 5606 5608 5612 5616 5619 5620 5620 5623 5624 5628 5628 5631 5633 5634 5635 5633 5636 5641 5641 5643 5650 5649 5651 5658 5661 5664 5665 5667
5572 5570 5570 5566 5560 5555 5550 5540 5554 5582 5579 5579 5577 5572 5576 5581 5583 5585 5590 5597 5601 5604 5605 5605 5608 5612 5614 5615 5618 5619 5621 5626 5625 5626 5626 5628 5634 5640 5641 5642 5646 5650 5653 5654 5656
5539 5537 5537 5531 5528 5522 5513 5518 5538 5558 5551 5550 5551 5556 5557 5562 5562 5566 5570 5581 5584 5588 5588 5590 5591 5596 5599 5601 5603 5605 5611 5611 5612 5613 5614 5617 5622 5627 5632 5634 5635 5637 5640 5644 5646
5503 5501 5497 5491 5492 5488 5484 5495 5511 5524 5522 5522 5522 5526 5533 5539 5540 5543 5549 5560 5567 5571 5571 5572 5573 5578 5583 5587 5591 5594 5596 5599 5601 5602 5602 5606 5612 5618 5620 5623 5625 5626 5628 5632 5635
5465 5463 5454 5448 5457 5454 5455 5467 5478 5485 5488 5488 5491 5499 5504 5516 5515 5517 5526 5539 5544 5549 5550 5553 5552 5558 5564 5568 5572 5577 5582 5583 5584 5590 5593 5598 5604 5606 5609 5611 5612 5616 5618 5619 5619
5430 5424 5421 5415 5419 5422 5427 5431 5440 5449 5456 5456 5460 5470 5481 5485 5488 5494 5504 5521 5521 5525 5529 5537 5533 5538 5542 5549 5554 5558 5565 5569 5574 5576 5581 5586 5594 5591 5597 5600 5603 5604 5606 5607 5609
5404 5398 5397 5394 5393 5393 5397 5409 5413 5419 5425 5430 5436 5444 5452 5456 5466 5472 5480 5491 5498 5505 5513 5516 5513 5517 5523 5538 5541 5542 5549 5554 5555 5556 5568 5569 5583 5581 5587 5592 5592 5590 5591 5593 5595
5392 5386 5381 5381 5384 5381 5381 5384 5392 5398 5403 5410 5415 5418 5424 5432 5440 5449 5458 5466 5473 5483 5489 5489 5489 5500 5511 5519 5520 5522 5528 5530 5532 5543 5539 5562 5561 5570 5572 5573 5573 5572 5575 5580 5581
5386 5380 5377 5374 5373 5373 5372 5375 5376 5381 5383 5391 5392 5401 5405 5411 5417 5424 5431 5441 5449 5461 5466 5471 5474 5481 5485 5500 5501 5499 5507 5513 5517 5523 5521 5537 5535 5551 5555 5556 5556 5556 5557 5563 5568
5381 5377 5372 5372 5367 5365 5368 5367 5369 5372 5374 5375 5372 5377 5387 5393 5396 5400 5409 5421 5430 5439 5446 5451 5457 5461 5461 5482 5478 5464 5487 5500 5500 5507 5512 5512 5532 5534 5536 5536 5533 5537 5539 5542 5547